Hourly Data Report for April 27, 2021

OTTAWA INTL A
ONTARIO
Current Station Operator: NAVCAN

45°19'00.000" N
75°40'00.000" W
114.90 m
6106001
71628
YOW

Download Data

Hourly Data (April 2021)
Hourly Data Report for April 27, 2021
TIME
LST
Temp Definition
°C
Dew Point Definition
°C
Rel Hum Definition
%
Precip. Amount Definition
mm

Wind Dir Definition
10's deg

Wind Spd Definition
km/h
Visibility Definition
km
Stn Press Definition
kPa
Hmdx Definition


Wind Chill Definition


Weather Definition


00:00 1.7 -8.7 46   25 8 24.1 100.54     LegendNANA
01:00 3.4 -7.6 44   32 9 24.1 100.56     Mostly Cloudy
02:00 1.7 -6.6 54   30 9 24.1 100.52     LegendNANA
03:00 1.8 -6.2 55   26 7 24.1 100.52     LegendNANA
04:00 2.8 -5.6 54   30 4 24.1 100.49     Mostly Cloudy
05:00 2.8 -5.4 55   27 7 24.1 100.49     LegendNANA
06:00 3.8 -4.3 56   26 3 24.1 100.49     LegendNANA
07:00 5.8 -5.7 43   33 5 24.1 100.50     Mostly Cloudy
08:00 6.8 -7.7 35   36 3 24.1 100.50     LegendNANA
09:00 7.8 -7.2 34   33 5 24.1 100.47     LegendNANA
10:00 8.9 -6.3 34   4 5 24.1 100.40     Mostly Cloudy
11:00 10.1 -6.0 32   34 5 24.1 100.31     LegendNANA
12:00 11.1 -4.0 34   27 7 24.1 100.22     LegendNANA
13:00 12.1 -3.5 33   28 12 24.1 100.16     Mostly Cloudy
14:00 12.7 -2.3 35   34 8 24.1 100.08     LegendNANA
15:00 14.0 -1.5 34   33 4 24.1 100.00     LegendNANA
16:00 14.3 -0.3 36   22 5 24.1 99.96     Mostly Cloudy
17:00 14.5 0.5 38   24 4 24.1 99.97     LegendNANA
18:00 13.2 1.9 46   25 7 24.1 99.96     LegendNANA
19:00 13.3 1.8 45   36 3 24.1 99.94     Mostly Cloudy
20:00 12.7 3.0 51   4 7 24.1 99.95     LegendNANA
21:00 11.7 1.8 51   6 7 24.1 99.92     LegendNANA
22:00 11.8 1.7 50   36 2 24.1 99.97     Cloudy
23:00 10.2 3.7 64   20 6 24.1 99.93     Rain

Notes on Data Quality.

Legend

  • E = Estimated
  • M = Missing
  • NA = Not Available*
  • [empty] = Indicates an unobserved value
Date modified: